This is the latest recevied weather packets stored in our database for station/object EA2MKR. If no packets are shown the sender has not sent any weather packets the latest 10 day(s).
| Time | Temp. | Humidity | Pressure | Rain* | Wind** | Luminosity | Snow |
|---|---|---|---|---|---|---|---|
| 1788427323 | 22.22° C | 63% | 961.9 hPa | 0 mm | - | - | - |
| 1788427143 | 21.67° C | 64% | 961.9 hPa | 0 mm | - | - | - |
| 1788426721 | 21.67° C | 61% | 961.9 hPa | 0 mm | - | - | - |
| 1788426422 | 21.11° C | 64% | 962 hPa | 0 mm | - | - | - |
| 1788426245 | 20.56° C | 68% | 962.1 hPa | 0 mm | - | - | - |
| 1788425817 | 20.56° C | 71% | 962.1 hPa | 0 mm | - | - | - |
| 1788425515 | 20° C | 71% | 962.1 hPa | 0 mm | - | - | - |
| 1788425212 | 20° C | 73% | 962 hPa | 0 mm | - | - | - |
| 1788424912 | 19.44° C | 75% | 961.9 hPa | 0 mm | - | - | - |
| 1788424606 | 19.44° C | 78% | 962.1 hPa | 0 mm | - | - | - |
| 1788424298 | 18.89° C | 78% | 962.1 hPa | 0 mm | - | - | - |
| 1788423998 | 18.33° C | 79% | 962 hPa | 0 mm | - | - | - |
| 1788423696 | 18.33° C | 82% | 962 hPa | 0 mm | - | - | - |
| 1788423521 | 18.33° C | 85% | 962 hPa | 0 mm | - | - | - |
| 1788423097 | 17.78° C | 87% | 961.9 hPa | 0 mm | - | - | - |
| 1788422797 | 17.22° C | 89% | 961.9 hPa | 0 mm | - | - | - |
| 1788422496 | 16.67° C | 91% | 962.1 hPa | 0 mm | - | - | - |
| 1788422197 | 16.11° C | 93% | 962 hPa | 0 mm | - | - | - |
| 1788421897 | 15.56° C | 94% | 962.1 hPa | 0 mm | - | - | - |
| 1788421596 | 15.56° C | 95% | 962.1 hPa | 0 mm | - | - | - |
| 1788421296 | 15° C | 96% | 962 hPa | 0 mm | - | - | - |
| 1788420996 | 14.44° C | 96% | 962.1 hPa | 0 mm | - | - | - |
| 1788420696 | 14.44° C | 96% | 962.1 hPa | 0 mm | - | - | - |
| 1788420396 | 14.44° C | 96% | 962 hPa | 0 mm | - | - | - |
| 1788420096 | 14.44° C | 96% | 962 hPa | 0 mm | - | - | - |
* Rain latest hour (hover to see other rain measurements)
** Current wind speed in m/s (hover to see current wind gust speed)